World > North America > United States > Illinois

Colfax, Illinois Regional Weather

Lat: 40.57N, Lon: 88.62W
Wx Zone: ILZ038Web Search

If you are on your PC, you can easily pass this page to your phone by scanning the QR Code near the bottom with your camera.

Feedback


°F Click to change Colfax hourly weather to Imperial units.Click to change Colfax hourly weather to Metric units. °C
Colfax Weather Map
UTC Time: 5/6/2021, 12:16
Your Time:

Colfax, IL Regional Weather

Expires:202105061300;;682457
ASUS43 KLOT 061209
RWRIL 

ILLINOIS REGIONAL WEATHER ROUNDUP
NATIONAL WEATHER SERVICE CHICAGO/ROMEOVILLE IL
700 AM CDT THU MAY 06 2021

NOTE: "FAIR" INDICATES FEW OR NO CLOUDS BELOW 12,000 FEET WITH NO
SIGNIFICANT WEATHER AND/OR OBSTRUCTIONS TO VISIBILITY.

* THESE STATIONS ARE NOT UNDER NWS QUALITY CONTROL. THEY ALSO MAY NOT
  REPORT WEATHER SUCH AS PRECIPITATION OR FOG.


ILZ028>032-037-038-041>044-048-051>054-059>061-061300-
CENTRAL ILLINOIS
  
CITY           SKY/WX    TMP DP  RH WIND       PRES   REMARKS
PONTIAC        LGT RAIN  50  35  57 S14       30.10S                  
BLOOMINGTON    LGT RAIN  49  43  80 S9        30.10R                  
DECATUR        CLOUDY    53  46  77 S7        30.11R                  
PEORIA         CLOUDY    53  44  71 SW9       30.07S                  
6HR MIN TEMP:  49; 6HR MAX TEMP:  53;                                

LACON*         CLOUDY    52  44  74 S3        30.06S                  
LINCOLN*       CLOUDY    55  43  63 S5        30.09S                  
SPRINGFIELD    CLOUDY    54  46  74 S7        30.08F                  
6HR MIN TEMP:  52; 6HR MAX TEMP:  55; 6HR PCP: TRACE;                

TAYLORVILLE    DRIZZLE   52  45  76 S10       30.11S                  
$$


SKY/WX - Weather  TMP - Temperature  DP - Dew Point  RH - Relative Humidity
WIND - Wind Direction/Speed PRES - Barometric Pressure VSB - Visibility
WCI - Wind Chill Index E13G22 Wind - East Wind 13 mph/Gusts of 22 mph